Tracking 17147 objects as of 4-July-2015
HD Live streaming from Space Station

DELTA 2 DEB

Track DELTA 2 DEB now!
10-day predictions
DELTA 2 DEB is classified as:


NORAD ID: 27765
Int'l Code: 2000-040D
Perigee: 191.0 km
Apogee: 4,811.8 km
Inclination: 38.9 °
Period: 138.6 minutes
Semi major axis: 8872 km
RCS: 0.0144 m2 (small)
Launch date: July 16, 2000
Source: United States (US)

Note: This is SATELLITE DEBRIS
Your satellite tracking list
Your tracking list is empty





NASA's NSSDC Master Catalog

Two Line Element Set (TLE):
1 27765U 00040D   15182.65861391  .00058589  64459-7  23128-3 0  9996
2 27765 038.8938 054.5522 2604043 272.8723 058.0102 10.38818193347418

Source of the keplerian elements: AFSPC

N2YO: 282